When you browse on this site, cookies collect data to enhance your experience and personalize the content and advertising you see.
Visit our Privacy Policy to learn more. By continuing to use the site, you agree to this use of cookies and data.
  • In Hungary
  • List of Countries
  • For 7 days
  • Water Temperature
  • Satellite Maps
  • Weather Map
  • News
  • Weather Widgets
  • user-avatar
    Login

    Hourly Weather Khadki

    Today, 24 April, Wednesday

    Time Temperature Precipitation Wind Pressure Humidity
    00:00 +31°C° 0 mm 3 mps 710 mmHg 32%
    01:00 +31°C° 0 mm 3 mps 710 mmHg 32%
    02:00 +30°C° 0 mm 3 mps 710 mmHg 33%
    03:00 +30°C° 0 mm 3 mps 710 mmHg 35%
    04:00 +29°C° 0 mm 2 mps 710 mmHg 36%
    05:00 +29°C° 0 mm 2 mps 710 mmHg 38%
    06:00 +30°C° 0 mm 3 mps 710 mmHg 35%
    07:00 +31°C° 0 mm 3 mps 711 mmHg 31%
    08:00 +34°C° 0 mm 3 mps 712 mmHg 28%
    09:00 +36°C° 0 mm 3 mps 712 mmHg 23%
    10:00 +38°C° 0 mm 3 mps 712 mmHg 18%
    11:00 +40°C° 0 mm 3 mps 712 mmHg 13%
    12:00 +42°C° 0 mm 3 mps 711 mmHg 12%
    13:00 +43°C° 0 mm 3 mps 711 mmHg 11%
    14:00 +44°C° 0 mm 3 mps 710 mmHg 10%
    15:00 +43°C° 0 mm 3 mps 710 mmHg 10%
    16:00 +43°C° 0 mm 3 mps 710 mmHg 11%
    17:00 +43°C° 0 mm 3 mps 709 mmHg 11%
    18:00 +41°C° 0 mm 4 mps 709 mmHg 19%
    19:00 +37°C° 0 mm 5 mps 709 mmHg 28%
    20:00 +35°C° 0 mm 6 mps 709 mmHg 36%
    21:00 +35°C° 0 mm 5 mps 710 mmHg 36%
    22:00 +34°C° 0 mm 4 mps 710 mmHg 36%
    23:00 +33°C° 0 mm 3 mps 710 mmHg 36%

    Tomorrow, 25 April, Thursday

    Time Temperature Precipitation Wind Pressure Humidity
    00:00 +33°C° 0 mm 3 mps 710 mmHg 37%
    01:00 +31°C° 0 mm 3 mps 709 mmHg 38%
    02:00 +30°C° 0 mm 3 mps 709 mmHg 39%
    03:00 +30°C° 0 mm 3 mps 709 mmHg 41%
    04:00 +29°C° 0 mm 3 mps 709 mmHg 42%
    05:00 +29°C° 0 mm 3 mps 709 mmHg 44%
    06:00 +30°C° 0 mm 3 mps 710 mmHg 38%
    07:00 +33°C° 0 mm 3 mps 711 mmHg 32%
    08:00 +34°C° 0 mm 3 mps 712 mmHg 27%
    09:00 +36°C° 0 mm 3 mps 712 mmHg 23%
    10:00 +38°C° 0 mm 4 mps 712 mmHg 20%
    11:00 +41°C° 0 mm 4 mps 712 mmHg 16%
    12:00 +42°C° 0 mm 3 mps 711 mmHg 15%
    13:00 +43°C° 0 mm 3 mps 711 mmHg 14%
    14:00 +43°C° 0 mm 3 mps 710 mmHg 13%
    15:00 +43°C° 0 mm 4 mps 710 mmHg 14%
    16:00 +42°C° 0 mm 5 mps 709 mmHg 15%
    17:00 +42°C° 0 mm 6 mps 709 mmHg 16%
    18:00 +40°C° 0 mm 6 mps 709 mmHg 18%
    19:00 +39°C° 0 mm 7 mps 709 mmHg 21%
    20:00 +36°C° 0 mm 7 mps 709 mmHg 23%
    21:00 +35°C° 0 mm 6 mps 709 mmHg 22%
    22:00 +35°C° 0 mm 5 mps 710 mmHg 20%
    23:00 +35°C° 0 mm 5 mps 710 mmHg 18%

    Day after tomorrow, 26 April, Friday

    Time Temperature Precipitation Wind Pressure Humidity
    00:00 +34°C° 0 mm 4 mps 709 mmHg 20%
    01:00 +33°C° 0 mm 4 mps 709 mmHg 21%
    02:00 +31°C° 0 mm 3 mps 708 mmHg 23%
    03:00 +31°C° 0 mm 3 mps 708 mmHg 25%
    04:00 +30°C° 0 mm 2 mps 708 mmHg 27%
    05:00 +30°C° 0 mm 2 mps 708 mmHg 29%
    06:00 +31°C° 0 mm 2 mps 709 mmHg 27%
    07:00 +34°C° 0 mm 2 mps 710 mmHg 24%
    08:00 +36°C° 0 mm 3 mps 710 mmHg 22%
    09:00 +38°C° 0 mm 4 mps 711 mmHg 19%
    10:00 +41°C° 0 mm 5 mps 711 mmHg 15%
    11:00 +44°C° 0 mm 6 mps 711 mmHg 12%
    12:00 +45°C° 0 mm 6 mps 710 mmHg 11%
    13:00 +46°C° 0 mm 5 mps 709 mmHg 11%
    14:00 +46°C° 0 mm 5 mps 709 mmHg 10%
    15:00 +46°C° 0 mm 5 mps 708 mmHg 10%
    16:00 +46°C° 0 mm 5 mps 708 mmHg 10%
    17:00 +45°C° 0 mm 5 mps 707 mmHg 10%
    18:00 +44°C° 0 mm 6 mps 708 mmHg 14%
    19:00 +41°C° 0 mm 6 mps 708 mmHg 17%
    20:00 +39°C° 0 mm 7 mps 708 mmHg 20%
    21:00 +39°C° 0 mm 7 mps 709 mmHg 19%
    22:00 +38°C° 0 mm 6 mps 709 mmHg 18%
    23:00 +36°C° 0 mm 6 mps 709 mmHg 18%

    27 April, Saturday

    Time Temperature Precipitation Wind Pressure Humidity
    00:00 +36°C° 0 mm 6 mps 708 mmHg 19%
    01:00 +35°C° 0 mm 5 mps 708 mmHg 20%
    02:00 +34°C° 0 mm 4 mps 707 mmHg 22%
    03:00 +34°C° 0 mm 4 mps 707 mmHg 24%
    04:00 +33°C° 0 mm 3 mps 707 mmHg 26%
    05:00 +32°C° 0 mm 2 mps 707 mmHg 28%
    06:00 +34°C° 0 mm 3 mps 708 mmHg 25%
    07:00 +36°C° 0 mm 3 mps 709 mmHg 22%
    08:00 +38°C° 0 mm 3 mps 710 mmHg 18%
    09:00 +41°C° 0 mm 5 mps 710 mmHg 15%
    10:00 +44°C° 0 mm 6 mps 710 mmHg 13%
    11:00 +46°C° 0 mm 7 mps 710 mmHg 10%
    12:00 +47°C° 0 mm 7 mps 709 mmHg 9%
    13:00 +47°C° 0 mm 7 mps 708 mmHg 9%
    14:00 +48°C° 0 mm 6 mps 707 mmHg 8%
    15:00 +48°C° 0 mm 6 mps 707 mmHg 8%
    16:00 +47°C° 0 mm 6 mps 707 mmHg 8%
    17:00 +47°C° 0 mm 6 mps 706 mmHg 8%
    18:00 +46°C° 0 mm 6 mps 707 mmHg 10%
    19:00 +43°C° 0 mm 5 mps 707 mmHg 12%
    20:00 +42°C° 0 mm 5 mps 707 mmHg 14%
    21:00 +41°C° 0 mm 6 mps 708 mmHg 15%
    22:00 +40°C° 0 mm 6 mps 708 mmHg 16%
    23:00 +39°C° 0 mm 7 mps 708 mmHg 17%

    28 April, Sunday

    Time Temperature Precipitation Wind Pressure Humidity
    00:00 +38°C° 0 mm 6 mps 707 mmHg 18%
    01:00 +37°C° 0 mm 5 mps 707 mmHg 20%
    02:00 +36°C° 0 mm 3 mps 706 mmHg 21%
    03:00 +35°C° 0 mm 3 mps 706 mmHg 21%
    04:00 +35°C° 0 mm 2 mps 706 mmHg 22%
    05:00 +34°C° 0 mm 1 mps 706 mmHg 22%
    06:00 +36°C° 0 mm 3 mps 707 mmHg 19%
    07:00 +38°C° 0 mm 4 mps 708 mmHg 17%
    08:00 +40°C° 0 mm 5 mps 709 mmHg 14%
    09:00 +42°C° 0 mm 6 mps 709 mmHg 13%
    10:00 +44°C° 0 mm 7 mps 709 mmHg 11%
    11:00 +46°C° 0 mm 7 mps 709 mmHg 9%
    12:00 +47°C° 0 mm 7 mps 708 mmHg 9%
    13:00 +47°C° 0 mm 6 mps 707 mmHg 8%
    14:00 +48°C° 0 mm 6 mps 706 mmHg 8%
    15:00 +47°C° 0 mm 6 mps 706 mmHg 8%
    16:00 +47°C° 0 mm 6 mps 706 mmHg 9%
    17:00 +46°C° 0 mm 5 mps 706 mmHg 9%
    18:00 +45°C° 0 mm 6 mps 706 mmHg 11%
    19:00 +42°C° 0 mm 6 mps 707 mmHg 13%
    20:00 +41°C° 0 mm 7 mps 707 mmHg 15%
    21:00 +40°C° 0 mm 6 mps 707 mmHg 16%
    22:00 +39°C° 0 mm 5 mps 707 mmHg 17%
    23:00 +36°C° 0 mm 5 mps 707 mmHg 18%

    29 April, Monday

    Time Temperature Precipitation Wind Pressure Humidity
    00:00 +36°C° 0 mm 4 mps 707 mmHg 21%
    01:00 +35°C° 0 mm 3 mps 706 mmHg 23%
    02:00 +34°C° 0 mm 2 mps 706 mmHg 26%
    03:00 +34°C° 0 mm 2 mps 706 mmHg 26%
    04:00 +32°C° 0 mm 2 mps 706 mmHg 25%
    05:00 +32°C° 0 mm 2 mps 707 mmHg 25%
    06:00 +35°C° 0 mm 3 mps 707 mmHg 22%
    07:00 +36°C° 0 mm 3 mps 708 mmHg 19%
    08:00 +38°C° 0 mm 4 mps 709 mmHg 16%
    09:00 +40°C° 0 mm 4 mps 709 mmHg 15%
    10:00 +41°C° 0 mm 5 mps 709 mmHg 13%
    11:00 +43°C° 0 mm 5 mps 709 mmHg 12%
    12:00 +42°C° 0 mm 5 mps 708 mmHg 14%
    13:00 +42°C° 0 mm 4 mps 707 mmHg 15%
    14:00 +42°C° 0 mm 4 mps 707 mmHg 16%
    15:00 +41°C° 0 mm 4 mps 706 mmHg 20%
    16:00 +40°C° 0 mm 5 mps 706 mmHg 23%
    17:00 +40°C° 0 mm 5 mps 706 mmHg 27%
    18:00 +37°C° 0 mm 5 mps 706 mmHg 31%
    19:00 +36°C° 0 mm 5 mps 706 mmHg 36%
    20:00 +34°C° 0 mm 5 mps 707 mmHg 40%
    21:00 +34°C° 0 mm 5 mps 707 mmHg 39%
    22:00 +34°C° 0 mm 5 mps 707 mmHg 37%
    23:00 +34°C° 0 mm 5 mps 707 mmHg 36%
    Show more